South Lake Tahoe, CA

10:47 AM PDT on April 29, 2017 (GMT -0700)
Lake Tahoe

Weather History for KTVL - April, 2014

Change the Weather History Date:

Tuesday, April 1, 2014

  Actual Average Record
Temperature  
Mean Temperature 29 °F 38 °F  
Max Temperature 35 °F 51 °F 68 °F (2011)
Min Temperature 23 °F 25 °F 0 °F (1975)
Degree Days  
Heating Degree Days 36 27  
Month to date heating degree days 36 27  
Since 1 July heating degree days 5436 6179  
Cooling Degree Days 0 0  
Month to date cooling degree days 0 0  
Year to date cooling degree days 0 0  
Moisture  
Dew Point 19 °F    
Average Humidity 61    
Maximum Humidity 75    
Minimum Humidity 47    
Precipitation  
Precipitation 0.01 in - 0.78 in (1958)
Month to date precipitation 0.01  
Year to date precipitation 10.35  
Sea Level Pressure  
Sea Level Pressure 29.79 in    
Wind  
Wind Speed 9 mph (South)    
Max Wind Speed 20 mph    
Max Gust Speed 26 mph    
Visibility 5 miles    
Events Snow    
T = Trace of Precipitation, MM = Missing Value Source: NWS Daily Summary

Daily Weather History Graph

Daily Weather History Graph

Search for Another Location

Airport or City:

Trip Planner

Search our weather history database for the weather conditions in past years. The results will help you decide how hot, cold, wet, or windy it might be!

Date:

Astronomy

Apr. 01, 2014 Rise Set
Actual Time 6:44 AM PDT 7:23 PM PDT
Civil Twilight 6:17 AM PDT 7:50 PM PDT
Nautical Twilight 5:45 AM PDT 8:22 PM PDT
Astronomical Twilight 5:13 AM PDT 8:55 PM PDT
Moon 7:51 AM PDT (4/1) 9:50 PM PDT (4/1)
Length of Visible Light 13h 32m
Length of Day
12h 39m
Waxing Crescent, 5% of the Moon is Illuminated
Apr 1
Waxing Crescent
Apr 7
First Quarter
Apr 15
Full
Apr 22
Last Quarter
Apr 28
New

Hourly Weather History & Observations

Time (PDT) Temp. Windchill Dew Point Humidity Pressure Visibility Wind Dir Wind Speed Gust Speed Precip Events Conditions
12:53 AM 23.0 °F 15.8 °F 14.0 °F 68% 29.77 in 10.0 mi SSE 5.8 mph - N/A   Partly Cloudy
1:20 AM 25.0 °F 16.3 °F 15.1 °F 66% 29.78 in 10.0 mi SSE 8.1 mph - N/A   Mostly Cloudy
1:53 AM 24.1 °F 12.0 °F 12.9 °F 62% 29.78 in 10.0 mi South 13.8 mph - N/A   Overcast
2:53 AM 24.1 °F 11.5 °F 12.0 °F 60% 29.76 in 10.0 mi SSW 15.0 mph 18.4 mph N/A   Clear
3:53 AM 24.1 °F 16.0 °F 9.0 °F 53% 29.76 in 10.0 mi South 6.9 mph 17.3 mph N/A   Scattered Clouds
4:53 AM 23.0 °F 15.8 °F 12.0 °F 63% 29.78 in 10.0 mi SW 5.8 mph - N/A   Scattered Clouds
5:31 AM 23.0 °F 12.4 °F 15.1 °F 72% 29.77 in 2.5 mi SSW 10.4 mph - 0.00 in Snow Light Snow
5:53 AM 23.0 °F 14.7 °F 16.0 °F 74% 29.78 in 1.5 mi SSW 6.9 mph - 0.00 in Snow Light Snow
6:02 AM 23.0 °F 13.9 °F 17.1 °F 78% 29.76 in 3.0 mi SW 8.1 mph - 0.00 in Snow Light Snow
6:29 AM 24.1 °F 13.1 °F 14.0 °F 65% 29.76 in 5.0 mi SSE 11.5 mph - 0.00 in Snow Light Snow
6:37 AM 24.1 °F 12.5 °F 15.1 °F 69% 29.76 in 3.0 mi South 12.7 mph - 0.00 in Snow Light Snow
6:46 AM 24.1 °F 13.1 °F 16.0 °F 71% 29.76 in 2.5 mi South 11.5 mph - 0.00 in Snow Light Snow
6:53 AM 24.1 °F 12.5 °F 16.0 °F 71% 29.79 in 1.2 mi South 12.7 mph - 0.00 in Snow Light Snow
7:01 AM 24.1 °F 13.7 °F 17.1 °F 75% 29.76 in 0.5 mi South 10.4 mph - 0.01 in Snow Snow
7:53 AM 25.0 °F 16.3 °F 18.0 °F 75% 29.80 in 0.8 mi South 8.1 mph - 0.01 in Snow Light Snow
8:03 AM 25.0 °F 15.5 °F 18.0 °F 75% 29.77 in 1.0 mi SSE 9.2 mph - 0.00 in Snow Light Snow
8:10 AM 26.1 °F 16.2 °F 18.0 °F 71% 29.78 in 2.5 mi SSE 10.4 mph - 0.00 in Snow Light Snow
8:31 AM 27.0 °F 19.5 °F 18.0 °F 69% 29.78 in 5.0 mi SSE 6.9 mph - 0.00 in Snow Light Snow
8:39 AM 28.0 °F 18.1 °F 18.0 °F 66% 29.79 in 4.0 mi South 11.5 mph - 0.00 in Snow Light Snow
8:53 AM 28.0 °F 21.7 °F 18.0 °F 66% 29.80 in 3.0 mi South 5.8 mph 17.3 mph 0.00 in Snow Light Snow
9:16 AM 28.9 °F 19.8 °F 18.0 °F 64% 29.79 in 6.0 mi SSE 10.4 mph - 0.00 in Snow Light Snow
9:23 AM 28.9 °F 22.8 °F 18.0 °F 64% 29.79 in 9.0 mi Variable 5.8 mph - 0.00 in   Overcast
9:53 AM 30.0 °F 20.0 °F 19.0 °F 64% 29.81 in 10.0 mi South 12.7 mph - 0.00 in   Overcast
10:03 AM 30.0 °F 21.1 °F 21.0 °F 69% 29.80 in 2.5 mi South 10.4 mph 20.7 mph 0.00 in Snow Light Snow
10:16 AM 30.9 °F 21.7 °F 19.9 °F 64% 29.80 in 5.0 mi South 11.5 mph 17.3 mph 0.00 in Snow Light Snow
10:37 AM 30.0 °F 25.2 °F 19.9 °F 66% 29.80 in 2.5 mi South 4.6 mph - 0.00 in Snow Light Snow
10:45 AM 30.9 °F - 19.9 °F 64% 29.80 in 3.0 mi Calm Calm - 0.00 in Snow Light Snow
10:53 AM 32.0 °F 21.6 °F 19.9 °F 61% 29.81 in 9.0 mi South 15.0 mph 24.2 mph 0.00 in   Overcast
11:02 AM 30.9 °F 20.7 °F 21.0 °F 67% 29.81 in 2.5 mi South 13.8 mph 23.0 mph 0.00 in Snow Light Snow
11:12 AM 30.0 °F 24.1 °F 21.0 °F 69% 29.81 in 3.0 mi Variable 5.8 mph - 0.00 in Snow Light Snow
11:23 AM 32.0 °F 22.1 °F 21.0 °F 64% 29.81 in 6.0 mi South 13.8 mph 21.9 mph 0.00 in Snow Light Snow
11:26 AM 32.0 °F 22.5 °F 21.0 °F 64% 29.81 in 4.0 mi SSW 12.7 mph 21.9 mph 0.00 in Snow Light Snow
11:29 AM 30.9 °F 20.2 °F 19.9 °F 64% 29.82 in 2.5 mi South 15.0 mph 21.9 mph 0.00 in Snow Light Snow
11:33 AM 30.9 °F 22.2 °F 19.9 °F 64% 29.82 in 1.5 mi SSW 10.4 mph 19.6 mph 0.00 in Snow Light Snow
11:45 AM 30.9 °F 22.2 °F 19.9 °F 64% 29.81 in 2.5 mi South 10.4 mph 19.6 mph 0.00 in Snow Light Snow
11:53 AM 30.9 °F 22.2 °F 19.9 °F 64% 29.84 in 3.0 mi South 10.4 mph 20.7 mph 0.00 in Snow Light Snow
12:00 PM 30.9 °F 23.5 °F 19.9 °F 64% 29.81 in 5.0 mi South 8.1 mph 16.1 mph 0.00 in Snow Light Snow
12:03 PM 30.9 °F 20.7 °F 19.9 °F 64% 29.82 in 4.0 mi South 13.8 mph 17.3 mph 0.00 in Snow Light Snow
12:07 PM 30.9 °F 21.2 °F 21.9 °F 69% 29.81 in 1.8 mi South 12.7 mph 17.3 mph 0.00 in Snow Light Snow
12:18 PM 30.9 °F 22.2 °F 21.9 °F 69% 29.81 in 3.0 mi South 10.4 mph - 0.00 in Snow Light Snow
12:28 PM 33.1 °F 28.7 °F 19.9 °F 59% 29.81 in 6.0 mi Variable 4.6 mph 21.9 mph 0.00 in Snow Light Snow
12:35 PM 33.1 °F 24.4 °F 21.0 °F 61% 29.81 in 4.0 mi South 11.5 mph 25.3 mph 0.00 in Snow Light Snow
12:41 PM 33.1 °F 23.4 °F 21.0 °F 61% 29.81 in 5.0 mi South 13.8 mph 25.3 mph 0.00 in Snow Light Snow
12:53 PM 33.1 °F 24.4 °F 19.0 °F 56% 29.84 in 10.0 mi South 11.5 mph 21.9 mph 0.00 in   Mostly Cloudy
1:53 PM 34.0 °F 27.2 °F 16.0 °F 48% 29.82 in 10.0 mi SW 8.1 mph 18.4 mph N/A   Partly Cloudy
2:17 PM 32.0 °F 23.6 °F 19.9 °F 61% 29.80 in 4.0 mi South 10.4 mph - 0.00 in Snow Light Snow
2:24 PM 34.0 °F 26.0 °F 19.0 °F 54% 29.79 in 8.0 mi South 10.4 mph - 0.00 in Snow Light Snow
2:37 PM 33.1 °F 24.4 °F 19.9 °F 59% 29.80 in 2.5 mi SSW 11.5 mph 23.0 mph 0.00 in Snow Light Snow
2:45 PM 32.0 °F 25.6 °F 21.9 °F 66% 29.79 in 1.5 mi Variable 6.9 mph 16.1 mph 0.00 in Snow Light Snow
2:50 PM 32.0 °F 24.2 °F 21.2 °F 64% 29.79 in 3.0 mi SSW 9.2 mph - 0.00 in Snow Light Snow
2:53 PM 32.0 °F 26.4 °F 21.0 °F 64% 29.81 in 2.5 mi Variable 5.8 mph - 0.00 in Snow Light Snow
3:02 PM 33.1 °F 26.9 °F 21.9 °F 64% 29.79 in 2.5 mi SSW 6.9 mph - 0.00 in Snow Light Snow
3:04 PM 33.1 °F 26.9 °F 21.0 °F 61% 29.79 in 5.0 mi Variable 6.9 mph - 0.00 in Snow Light Snow
3:15 PM 32.0 °F 25.6 °F 21.0 °F 64% 29.79 in 2.5 mi Variable 6.9 mph - 0.00 in Snow Light Snow
3:24 PM 33.1 °F 24.9 °F 19.0 °F 56% 29.78 in 4.0 mi SSW 10.4 mph - 0.00 in Snow Light Snow
3:31 PM 34.0 °F 26.0 °F 18.0 °F 52% 29.78 in 9.0 mi SSW 10.4 mph - 0.00 in   Overcast
3:49 PM 33.8 °F 27.7 °F 17.6 °F 52% 29.77 in 9.0 mi Variable 6.9 mph - 0.00 in   Overcast
3:53 PM 34.0 °F 24.6 °F 19.0 °F 54% 29.79 in 8.0 mi South 13.8 mph - 0.00 in   Overcast
4:26 PM 33.1 °F 22.6 °F 21.9 °F 64% 29.78 in 2.5 mi South 16.1 mph 25.3 mph 0.00 in Snow Light Snow
4:34 PM 32.0 °F 24.8 °F 21.0 °F 64% 29.77 in 1.8 mi SW 8.1 mph - 0.00 in Snow Light Snow
4:36 PM 33.1 °F 24.9 °F 19.0 °F 56% 29.77 in 3.0 mi SSW 10.4 mph - 0.00 in Snow Light Snow
4:44 PM 34.0 °F 25.0 °F 19.9 °F 56% 29.77 in 6.0 mi SSW 12.7 mph 19.6 mph 0.00 in Snow Light Snow
4:53 PM 32.0 °F 24.8 °F 19.9 °F 61% 29.80 in 4.0 mi South 8.1 mph 18.4 mph 0.00 in Snow Light Snow
5:01 PM 33.1 °F 24.9 °F 19.9 °F 59% 29.77 in 5.0 mi South 10.4 mph - 0.00 in Snow Light Snow
5:10 PM 32.0 °F 24.8 °F 17.1 °F 54% 29.77 in 9.0 mi SSW 8.1 mph - 0.00 in   Mostly Cloudy
5:53 PM 32.0 °F 28.7 °F 15.1 °F 50% 29.79 in 10.0 mi WSW 3.5 mph - 0.00 in   Mostly Cloudy
6:53 PM 30.9 °F 27.5 °F 17.1 °F 57% 29.78 in 10.0 mi SW 3.5 mph - N/A   Mostly Cloudy
7:53 PM 30.0 °F - 21.0 °F 69% 29.78 in 10.0 mi Calm Calm - N/A   Scattered Clouds
8:53 PM 28.0 °F - 19.9 °F 72% 29.79 in 10.0 mi Calm Calm - N/A   Partly Cloudy
9:53 PM 28.0 °F - 21.0 °F 75% 29.80 in 10.0 mi Calm Calm - N/A   Mostly Cloudy
10:53 PM 28.0 °F - 21.0 °F 75% 29.78 in 10.0 mi Calm Calm - N/A   Overcast
11:53 PM 28.0 °F 22.8 °F 19.9 °F 72% 29.78 in 10.0 mi South 4.6 mph - N/A   Overcast